Regional Weather Roundup
Issued by NWS

Home | Current Version | Previous Version | Text Only | Print | Product List | Glossary On
Versions: 1 2 3 4 5 6 7 8 9 10 11 12 13 14 15 16 17 18 19 20 21 22 23 24 25 26 27 28 29 30 31 32 33 34 35 36 37 38 39 40 41 42 43 44 45 46 47 48 49 50
000
ASUS43 KTOP 251908
RWRKS

WEATHER ROUNDUP FOR KANSAS
NATIONAL WEATHER SERVICE GOODLAND KS
200 PM CDT FRI MAY 25 2018

NOTE:  "FAIR" INDICATES FEW OR NO CLOUDS BELOW 12,000 FEET WITH NO
SIGNIFICANT WEATHER AND/OR OBSTRUCTIONS TO VISIBILITY.

KSZ001>006-013>018-027>032-041>047-252000-
NORTHWEST KANSAS

CITY           SKY/WX    TMP DP  RH WIND       PRES   REMARKS
GOODLAND       SUNNY     88  45  22 MISG      29.97F
HILL CITY      SUNNY     87  67  51 CALM      29.91F
RUSSELL        SUNNY     85  67  54 S5        29.89F
$$

KSZ061>065-074>080-084>089-252000-
SOUTHWEST KANSAS

CITY           SKY/WX    TMP DP  RH WIND       PRES   REMARKS
DODGE CITY     SUNNY     90  61  37 SE12G17   29.93F
ELKHART        SUNNY     88  62  40 NE9       29.98S
GARDEN CITY    SUNNY     88  60  38 VRB6      29.94F
LIBERAL        SUNNY     88  59  37 E15       29.93F
PRATT          SUNNY     82  64  54 SW10      29.92F
$$

KSZ066>073-081>083-090>101-252000-
SOUTHEAST KANSAS

CITY           SKY/WX    TMP DP  RH WIND       PRES   REMARKS
CHANUTE        CLOUDY    82  70  66 VRB3      29.90F
COFFEYVILLE    PTSUNNY   84  67  56 VRB5      29.89F
HUTCHINSON     CLOUDY    86  66  51 SW9       29.90F
MEDICINE LODGE   N/A     83  63  50 S9        29.90F
NEWTON         CLOUDY    84  64  50 S6        29.92F
PARSONS        CLOUDY    82  70  66 W6        29.91F
WICHITA INTL   CLOUDY    87  61  41 SW10      29.90F
WICHITA JABRA  CLOUDY    85  64  49 S8        29.90F
WICHITA MCCONL MOSUNNY   86  60  41 S3        29.91S
WINFIELD       CLOUDY    83  65  54 S8        29.91F
$$

KSZ007>012-019>026-033>040-048>060-102>105-252000-
NORTHEAST KANSAS

CITY           SKY/WX    TMP DP  RH WIND       PRES   REMARKS
CONCORDIA      SUNNY     87  65  47 SW14G22   29.87F
EMPORIA        CLOUDY    80  65  59 CALM      29.90F
LAWRENCE       CLOUDY    81  66  60 W6        29.88F
MANHATTAN      SUNNY     89  65  44 VRB5      29.87F
OLATHE IND     CLOUDY    79  67  66 VRB3      29.89F
OLATHE EXE     CLOUDY    77  68  73 S7        29.89F
SALINA         MOSUNNY   91  67  44 W10       29.88F
TOPEKA BILLARD MOSUNNY   82  66  58 VRB6      29.87F
TOPEKA FORBES  MOSUNNY   83  66  56 SW8       29.89F
$$




USA.gov is the U.S. government's official web portal to all federal, state and local government web resources and services.